DMSP 5D-2 F13 DEB, 40450

Orbit data source: Space-Track

DMSP 5D-2 F13 DEB, 40450 is space debris in SSO originally from a launch on Fri, 24 Mar 1995 UTC launched from the Air Force Western Test Range (AFWTR). Debris objects in space refer to the collection of defunct objects orbiting the Earth. Examples of debris include non-operational satellites, rocket bodies, and fragments generated from explosions, collisions, or faulty payload assembly.

Loading next visibility...
Identifier
40450, 1995-015BC
Orbit
SSO
Country
Flag of USUS
Related business
Manufacturer
Unknown
Mission
Spacecraft
Bus & Motor
Unknown
Mass
Unknown
Launch date (UTC)
1995-03-24 (31 years ago)
Launch vehicle
Unknown
Launch site
Air Force Western Test Range (AFWTR)
Object type
Payload
Rocket body
Debris
Shape & HBR
Unknown shape, 0.1 m
Radar Cross Section
Small (<0.1 m²)

Expand to show TLE details & history
Last TLE update: 8 hours ago

TLE from 8 hours ago
0 DMSP 5D-2 F13 DEB
1 40450U 95015BC  26119.04399582  .00001967  00000-0  74880-3 0  9995
2 40450  98.6360 146.4549 0014568 113.7703 246.5009 14.31980759579437
Epoch: 2026-04-29T01:03Z
TLE epoch observation values (Epoch: 2026-04-29T01:03:21.238Z)
Latitude
-0.00012°
Longitude
-86.39419°
Altitude
792.225 km
Speed
7.455 km/s
True Right ascension
09h 45m 49s
True Declination
0° 00' 00"
Sunlit
Object was in daylight at epoch
Visualization orbit readout
Latitude
Unknown
Longitude
Unknown
Altitude
Unknown
Speed
Unknown
Apparent Right ascension
Unknown
Apparent Declination
Unknown
Sunlit
N/A
Visualization observer readout
Local Sidereal Time
16:43:48
Azimuth
Unknown
Elevation
Unknown
Doppler factor
Unknown
Orbital elements
Apogee altitude
792.688 km
Perigee altitude
771.825 km
Semi-major axis
7,160.394 km
Eccentricity
0.00146
Inclination
98.636°
RAAN
146.4549°
Arg. of periapsis
113.7703°
True anomaly
246.34792°
Mean anomaly
246.5009°
Eccentric anomaly
246.4244°
Mean motion
3.5821 °/min
Orbital period
100.5 mins
BSTAR
0.0007488

Documentation

Showing up to 5 results
|